Find Starlink 5289

NORAD ID: 55278 Int'l Des: 2023-010 Owner: SPXS Country: US Constellation: starlink operational
LEOCIRCULAR

現在のビュー

3D地球を読み込み中...

About Starlink 5289

Starlink 5289 (NORAD 55278) is a starlink constellation satellite (v1.5) launched Jan 19, 2023 by SPXS of US. It operates in LEO, CIRCULAR orbit with a mass of 305.00 kg.

Starlink 5289について

説明を読み込み中...

次回通過

Passes for default location (London). Set your location on the main map for personalized predictions.

高度履歴

Loading altitude history...

軌道要素

1 55278U 23010K 26171.33990722 -.00000136 00000-0 -36033-5 0 9997
2 55278 69.9991 145.5676 0003818 264.2904 95.7820 14.98329554188157
Epoch: Jun 20, 2026 • Age: 36 hours

現在のステータス

高度 593.4 km
速度 7.56 km/s
衛星直下点 -64.37°S, 152.66°E
打ち上げ日 Jan 19, 2023
運用期間 3.4 years
タイプ internet

技術仕様

分類 Payload
質量 305.00 kg
乾燥質量 290.00 kg
総質量 305.00 kg
長さ 0.20 m
直径 2.80 m
スパン 9.00 m
形状 Box + pan
製造者 SPXS
バスタイプ Starlink
フェーズステータス In Orbit
所有者/国 SPXS/US

Most Searched